�N����,����,�~����,�C��,���x,�C��,����,���ϕ���,�ő�u�ԕ���,�ő厞����,���˗�,�I�_���x,�n�����x,�ő啗���N��,DTYPE
"19/02/15","00:10",0.0,-0.6,90.4,1021.3,286.6,0.5,1.6,322.7,0.00,-1.9,5.7,"00:00:16",1
"19/02/15","00:20",0.0,-0.7,91.0,1020.8,304.9,0.5,1.7,321.4,0.00,-1.9,5.4,"00:19:12",1
"19/02/15","00:30",0.0,-1.0,91.6,1021.1,308.0,1.3,1.7,318.0,0.00,-2.2,5.5,"00:28:40",1
"19/02/15","00:40",0.0,-1.3,92.3,1020.4,312.3,1.5,1.8,323.5,0.00,-2.3,5.5,"00:30:24",1
"19/02/15","00:50",0.0,-1.3,93.1,1020.6,311.0,1.7,2.2,318.3,0.00,-2.2,5.6,"00:43:28",1
"19/02/15","01:00",0.0,-1.2,93.2,1020.4,315.1,1.8,2.5,327.6,0.00,-2.1,5.4,"00:55:52",1
"19/02/15","01:10",0.0,-1.1,93.8,1020.6,308.9,1.8,2.8,322.3,0.00,-1.9,5.4,"01:09:36",1
"19/02/15","01:20",0.0,-0.9,93.5,1020.6,315.3,2.0,3.1,335.1,0.00,-1.8,5.1,"01:12:56",1
"19/02/15","01:30",0.0,-0.9,94.0,1020.6,301.3,1.6,3.1,331.3,0.00,-1.7,5.2,"01:26:24",1
"19/02/15","01:40",0.0,-0.7,94.0,1021.1,315.1,2.0,3.3,326.6,0.00,-1.5,5.1,"01:35:36",1
"19/02/15","01:50",0.0,-0.8,94.1,1020.8,323.9,1.5,2.8,341.6,0.00,-1.6,4.9,"01:46:36",1
"19/02/15","02:00",0.0,-0.7,94.1,1021.1,335.3,1.7,3.5,346.7,0.00,-1.5,4.9,"01:55:10",1
"19/02/15","02:10",0.0,-0.6,94.2,1020.8,335.4,1.5,2.9,344.5,0.00,-1.4,4.8,"02:02:18",1
"19/02/15","02:20",0.0,-0.7,93.7,1020.6,340.5,1.5,2.9,338.1,0.00,-1.5,4.9,"02:11:38",1
"19/02/15","02:30",0.0,-1.1,93.9,1020.1,342.3,1.1,2.2,337.6,0.00,-1.9,4.7,"02:28:36",1
"19/02/15","02:40",0.0,-1.5,94.2,1020.1,312.7,1.5,2.2,330.5,0.00,-2.3,4.8,"02:39:48",1
"19/02/15","02:50",0.0,-1.5,95.1,1019.9,309.9,1.7,2.4,320.3,0.00,-2.1,4.9,"02:43:04",1
"19/02/15","03:00",0.0,-1.4,95.1,1019.9,316.9,1.7,2.7,321.4,0.00,-2.0,4.7,"02:55:52",1
"19/02/15","03:10",0.0,-1.5,95.0,1020.6,320.2,1.2,2.0,312.8,0.00,-2.2,4.8,"03:03:20",1
"19/02/15","03:20",0.0,-1.7,95.3,1020.1,293.0,0.7,1.2,293.3,0.00,-2.3,4.5,"03:16:56",1
"19/02/15","03:30",0.0,-1.8,95.2,1020.8,320.3,2.0,2.8,325.2,0.00,-2.4,4.5,"03:27:20",1
"19/02/15","03:40",0.0,-1.7,95.8,1020.1,319.3,2.0,2.6,319.2,0.00,-2.2,4.4,"03:32:32",1
"19/02/15","03:50",0.0,-1.8,95.3,1019.4,330.1,1.7,2.4,334.5,0.00,-2.4,4.6,"03:44:08",1
"19/02/15","04:00",0.0,-1.8,96.4,1019.9,298.6,1.6,2.1,309.1,0.00,-2.3,4.5,"03:57:52",1
"19/02/15","04:10",0.0,-1.3,96.0,1020.4,329.5,2.2,3.3,346.7,0.00,-1.8,4.4,"04:08:56",1
"19/02/15","04:20",0.0,-1.3,95.7,1020.1,341.0,1.1,2.4,340.3,0.00,-1.9,4.4,"04:10:08",1
"19/02/15","04:30",0.0,-1.2,95.7,1019.4,330.2,1.2,2.5,334.9,0.00,-1.8,4.2,"04:22:48",1
"19/02/15","04:40",0.0,-1.1,96.2,1019.4,313.0,1.2,2.5,334.4,0.00,-1.6,4.2,"04:37:52",1
"19/02/15","04:50",0.0,-0.8,95.8,1019.0,330.9,2.2,3.9,340.0,0.00,-1.3,4.1,"04:45:12",1
"19/02/15","05:00",0.0,-0.7,95.7,1019.0,312.6,1.8,2.6,326.9,0.00,-1.3,4.5,"04:54:40",1
"19/02/15","05:10",0.0,-1.1,95.4,1019.0,255.8,0.5,1.3,309.6,0.00,-1.7,4.3,"05:00:48",1
"19/02/15","05:20",0.0,-1.4,95.8,1018.7,310.9,1.3,2.0,322.2,0.00,-1.9,4.2,"05:18:08",1
"19/02/15","05:30",0.0,-1.3,96.0,1018.7,328.2,1.8,2.6,339.9,0.00,-1.8,4.1,"05:29:20",1
"19/02/15","05:40",0.0,-1.2,95.7,1018.7,315.2,1.5,2.9,334.7,0.00,-1.8,4.2,"05:37:20",1
"19/02/15","05:50",0.0,-1.2,96.1,1019.4,314.5,1.1,3.4,330.9,0.00,-1.7,4.2,"05:47:12",1
"19/02/15","06:00",0.0,-1.1,96.0,1019.0,323.1,1.3,2.2,323.7,0.00,-1.6,4.2,"05:50:24",1
"19/02/15","06:10",0.0,-1.2,95.7,1019.4,330.8,1.6,2.5,354.1,0.00,-1.8,4.1,"06:02:16",1
"19/02/15","06:20",0.0,-1.4,95.6,1019.0,319.4,1.5,1.9,335.7,0.00,-2.0,4.2,"06:10:32",1
"19/02/15","06:30",0.0,-1.5,95.6,1019.2,299.8,1.6,2.9,331.9,0.00,-2.1,4.0,"06:22:56",1
"19/02/15","06:40",0.0,-1.2,96.0,1018.7,283.5,1.5,1.9,272.7,0.00,-1.7,4.0,"06:31:36",1
"19/02/15","06:50",0.0,-1.2,95.9,1019.0,351.1,0.6,1.4,296.8,0.00,-1.7,4.1,"06:40:32",1
"19/02/15","07:00",0.0,-1.8,95.3,1019.0,320.3,1.8,2.5,320.3,0.00,-2.4,4.1,"06:52:32",1
"19/02/15","07:10",0.0,-2.1,95.8,1019.0,310.8,1.3,2.7,319.7,0.00,-2.6,4.2,"07:09:28",1
"19/02/15","07:20",0.0,-1.9,96.0,1019.0,323.3,2.1,2.5,322.2,0.00,-2.4,3.8,"07:10:16",1
"19/02/15","07:30",0.0,-1.8,96.4,1019.2,299.5,1.2,2.2,320.4,0.00,-2.3,4.2,"07:23:04",1
"19/02/15","07:40",0.0,-1.4,96.5,1019.2,306.6,1.2,1.8,321.9,0.00,-1.8,3.9,"07:32:08",1
"19/02/15","07:50",0.0,-1.3,95.5,1019.7,324.0,1.1,2.6,325.4,0.01,-1.9,3.9,"07:40:02",1
"19/02/15","08:00",0.0,-0.9,96.1,1019.4,270.4,0.8,2.5,326.4,0.02,-1.4,4.1,"07:50:24",1
"19/02/15","08:10",0.0,-0.4,95.5,1019.9,278.4,1.0,1.6,307.9,0.03,-1.0,4.0,"08:02:40",1
"19/02/15","08:20",0.0,0.0,94.8,1020.1,293.9,1.6,2.4,318.3,0.05,-0.7,3.9,"08:19:14",1
"19/02/15","08:30",0.0,0.5,93.9,1020.1,306.7,1.5,2.5,322.3,0.05,-0.3,4.2,"08:20:34",1
"19/02/15","08:40",0.0,0.7,93.6,1020.1,288.7,1.5,2.0,312.2,0.05,-0.2,4.3,"08:30:40",1
"19/02/15","08:50",0.0,1.4,93.2,1020.4,196.0,0.7,1.6,185.5,0.12,0.5,4.2,"08:48:06",1
"19/02/15","09:00",0.0,1.5,90.6,1020.4,232.5,0.7,1.4,154.7,0.10,0.2,4.1,"08:58:04",1
"19/02/15","09:10",0.0,1.8,88.8,1020.4,252.5,1.1,1.7,250.3,0.08,0.2,4.2,"09:05:28",1
"19/02/15","09:20",0.0,1.7,87.6,1020.4,253.8,1.2,2.2,241.7,0.12,-0.1,4.2,"09:17:24",1
"19/02/15","09:30",0.0,2.3,86.1,1020.4,269.6,1.5,2.1,271.8,0.15,0.3,4.3,"09:24:22",1
"19/02/15","09:40",0.0,2.2,84.3,1020.8,292.2,1.8,2.7,277.2,0.13,-0.1,4.5,"09:39:36",1
"19/02/15","09:50",0.0,2.3,83.3,1021.3,241.7,1.2,2.5,238.4,0.07,-0.2,4.7,"09:40:50",1
"19/02/15","10:00",0.0,2.5,83.0,1020.6,272.9,1.2,2.6,302.9,0.06,0.0,4.8,"09:59:52",1
"19/02/15","10:10",0.0,2.5,82.2,1020.6,307.7,2.0,4.0,320.2,0.06,-0.2,4.8,"10:00:40",1
"19/02/15","10:20",0.0,2.7,81.6,1020.4,305.3,1.7,3.2,317.6,0.12,-0.1,4.9,"10:16:08",1
"19/02/15","10:30",0.0,3.0,81.0,1020.1,219.7,0.6,1.4,127.3,0.18,0.1,5.2,"10:22:32",1
"19/02/15","10:40",0.0,3.6,76.8,1020.4,241.4,0.8,2.0,306.7,0.26,0.0,5.4,"10:39:48",1
"19/02/15","10:50",0.0,3.8,71.7,1020.6,276.8,1.0,2.1,314.3,0.26,-0.8,5.5,"10:40:08",1
"19/02/15","11:00",0.0,4.2,69.7,1020.6,263.6,1.1,1.9,251.5,0.28,-0.8,5.6,"10:53:50",1
"19/02/15","11:10",0.0,4.4,68.1,1020.4,260.9,0.8,1.9,255.6,0.14,-0.9,6.0,"11:03:20",1
"19/02/15","11:20",0.0,4.3,68.6,1020.1,240.3,1.1,2.5,185.0,0.08,-0.9,5.8,"11:15:34",1
"19/02/15","11:30",0.0,4.5,68.7,1020.1,219.1,1.2,2.4,219.8,0.10,-0.7,6.1,"11:29:08",1
"19/02/15","11:40",0.0,4.2,69.2,1019.9,235.2,2.0,3.6,205.2,0.09,-0.9,6.1,"11:30:24",1
"19/02/15","11:50",0.0,4.6,68.5,1019.7,210.8,1.1,2.7,220.4,0.09,-0.7,6.3,"11:45:28",1
"19/02/15","12:00",0.0,4.4,67.5,1019.9,231.6,1.7,3.6,233.5,0.08,-1.0,6.3,"11:52:40",1
"19/02/15","12:10",0.0,4.8,67.0,1019.9,245.6,1.1,2.5,231.2,0.10,-0.8,6.4,"12:04:24",1
"19/02/15","12:20",0.0,4.7,66.5,1019.4,242.4,1.0,2.1,245.0,0.13,-1.0,6.2,"12:16:48",1
"19/02/15","12:30",0.0,4.6,66.0,1019.2,241.4,1.3,2.1,141.8,0.14,-1.2,6.4,"12:20:48",1
"19/02/15","12:40",0.0,4.8,64.5,1019.0,328.6,1.0,2.2,303.4,0.12,-1.3,6.5,"12:32:00",1
"19/02/15","12:50",0.0,5.0,64.8,1018.5,326.6,2.0,3.3,330.4,0.12,-1.0,6.5,"12:43:52",1
"19/02/15","13:00",0.0,5.4,63.3,1018.2,332.8,1.2,2.8,315.3,0.13,-1.0,6.6,"12:55:28",1
"19/02/15","13:10",0.0,5.6,61.6,1018.2,329.4,1.7,3.1,323.8,0.11,-1.1,6.7,"13:05:52",1
"19/02/15","13:20",0.0,5.5,62.2,1017.3,297.5,1.6,3.1,319.7,0.13,-1.1,6.9,"13:10:40",1
"19/02/15","13:30",0.0,5.4,61.9,1017.8,278.8,1.7,3.7,324.1,0.14,-1.3,7.0,"13:29:12",1
"19/02/15","13:40",0.0,5.6,61.8,1018.2,297.6,2.2,3.7,338.3,0.13,-1.1,6.9,"13:32:24",1
"19/02/15","13:50",0.0,5.9,61.2,1017.8,293.7,2.0,3.3,313.4,0.12,-1.0,6.9,"13:47:12",1
"19/02/15","14:00",0.0,6.1,60.4,1017.1,282.5,1.5,2.6,320.7,0.08,-0.9,7.0,"13:52:00",1
"19/02/15","14:10",0.0,6.1,60.7,1017.5,297.8,1.6,2.8,321.8,0.06,-0.9,7.0,"14:02:56",1
"19/02/15","14:20",0.0,5.9,60.1,1017.3,268.9,1.1,1.8,273.2,0.05,-1.2,7.1,"14:17:44",1
"19/02/15","14:30",0.0,6.1,60.6,1016.8,319.0,1.5,2.1,334.3,0.08,-0.9,7.2,"14:22:56",1
"19/02/15","14:40",0.0,6.2,59.6,1016.8,290.7,1.0,1.8,315.5,0.07,-1.0,7.1,"14:32:32",1
"19/02/15","14:50",0.0,6.2,59.9,1016.6,271.5,1.2,1.8,249.7,0.11,-1.0,7.4,"14:45:20",1
"19/02/15","15:00",0.0,6.5,57.6,1016.6,303.6,1.7,3.2,328.3,0.15,-1.2,7.3,"14:54:00",1
"19/02/15","15:10",0.0,6.5,58.3,1016.8,255.7,1.0,1.8,249.5,0.16,-1.1,7.0,"15:08:48",1
"19/02/15","15:20",0.0,6.9,58.1,1016.8,254.4,1.0,3.2,284.8,0.13,-0.7,7.2,"15:19:44",1
"19/02/15","15:30",0.0,7.3,56.8,1016.8,297.2,1.5,2.4,306.6,0.11,-0.7,7.2,"15:20:08",1
"19/02/15","15:40",0.0,6.6,58.1,1016.4,272.2,1.7,2.5,268.7,0.12,-1.0,7.5,"15:35:04",1
"19/02/15","15:50",0.0,7.0,57.4,1016.4,271.4,1.2,2.5,310.7,0.09,-0.8,7.3,"15:46:00",1
"19/02/15","16:00",0.0,7.1,57.1,1015.6,291.0,1.1,1.6,320.1,0.05,-0.8,7.6,"15:52:48",1
"19/02/15","16:10",0.0,7.0,56.8,1015.9,306.7,1.0,1.6,283.4,0.04,-0.9,7.5,"16:06:40",1
"19/02/15","16:20",0.0,6.9,57.9,1015.9,262.2,1.1,1.7,255.1,0.03,-0.8,7.4,"16:14:24",1
"19/02/15","16:30",0.0,6.9,57.7,1015.9,269.7,1.0,2.4,201.1,0.03,-0.8,7.5,"16:20:56",1
"19/02/15","16:40",0.0,6.9,58.3,1015.9,274.9,0.8,1.6,310.3,0.02,-0.7,7.5,"16:38:56",1
"19/02/15","16:50",0.0,6.8,59.1,1015.6,283.8,1.0,1.4,267.9,0.01,-0.6,7.5,"16:48:48",1
"19/02/15","17:00",0.0,6.8,59.5,1015.4,283.7,1.0,2.0,261.6,0.01,-0.5,7.5,"16:53:04",1
"19/02/15","17:10",0.0,6.8,58.8,1015.4,269.6,0.7,1.4,272.9,0.01,-0.7,7.5,"17:07:52",1
"19/02/15","17:20",0.0,6.7,59.5,1015.9,300.7,1.3,2.0,317.1,0.00,-0.6,7.6,"17:15:12",1
"19/02/15","17:30",0.0,6.7,59.1,1015.6,287.8,1.0,1.4,307.1,0.00,-0.7,7.5,"17:20:56",1
"19/02/15","17:40",0.0,6.5,60.0,1015.6,280.2,0.8,1.3,303.7,0.00,-0.7,7.4,"17:38:56",1
"19/02/15","17:50",0.0,6.5,62.3,1015.4,314.5,1.5,2.2,342.8,0.00,-0.1,7.4,"17:49:28",1
"19/02/15","18:00",0.0,6.1,66.1,1015.4,327.7,2.0,2.4,341.9,0.00,0.3,7.4,"17:51:12",1
"19/02/15","18:10",0.0,5.8,68.9,1014.9,316.7,2.1,2.7,324.2,0.00,0.6,7.4,"18:07:36",1
"19/02/15","18:20",0.0,5.5,70.5,1015.2,296.1,1.6,1.9,311.3,0.00,0.6,7.3,"18:10:08",1
"19/02/15","18:30",0.0,5.5,70.5,1014.9,289.0,1.8,2.1,301.0,0.00,0.6,7.2,"18:29:12",1
"19/02/15","18:40",0.0,5.5,70.4,1015.4,288.6,1.7,2.7,317.9,0.00,0.6,7.3,"18:39:28",1
"19/02/15","18:50",0.0,5.6,70.2,1014.9,319.0,2.3,3.2,318.5,0.00,0.6,7.3,"18:42:16",1
"19/02/15","19:00",0.0,5.3,71.4,1014.9,312.1,2.1,2.9,322.2,0.00,0.6,7.1,"18:54:48",1
"19/02/15","19:10",0.0,5.1,72.7,1014.9,299.7,2.0,2.6,309.7,0.00,0.6,7.1,"19:07:44",1
"19/02/15","19:20",0.0,5.0,73.6,1014.5,298.3,2.1,2.8,310.3,0.00,0.7,7.1,"19:14:56",1
"19/02/15","19:30",0.0,4.7,74.5,1014.2,287.6,1.6,2.0,294.7,0.00,0.6,7.1,"19:20:32",1
"19/02/15","19:40",0.0,4.7,75.1,1013.8,301.2,2.2,2.8,316.2,0.00,0.7,6.7,"19:32:08",1
"19/02/15","19:50",0.0,4.6,75.8,1014.5,281.7,2.1,3.1,314.6,0.00,0.7,7.0,"19:40:02",1
"19/02/15","20:00",0.0,4.7,76.1,1014.5,315.6,2.7,4.3,318.3,0.00,0.9,6.7,"19:55:36",1
"19/02/15","20:10",0.0,4.7,76.3,1013.8,311.4,2.2,3.3,322.6,0.00,0.9,6.9,"20:07:52",1
"19/02/15","20:20",0.0,4.4,77.2,1014.5,316.6,2.3,3.9,322.7,0.00,0.8,6.8,"20:11:04",1
"19/02/15","20:30",0.0,4.5,77.6,1014.0,309.0,2.2,2.8,322.5,0.00,1.0,6.7,"20:20:48",1
"19/02/15","20:40",0.0,4.6,77.7,1013.8,312.5,2.1,3.2,310.8,0.00,1.1,7.1,"20:30:16",1
"19/02/15","20:50",0.0,4.5,78.1,1013.8,300.1,2.2,2.8,309.0,0.00,1.1,6.8,"20:47:04",1
"19/02/15","21:00",0.0,4.4,78.0,1013.3,287.0,1.7,2.5,314.2,0.00,0.9,6.8,"20:58:56",1
"19/02/15","21:10",0.0,4.4,77.5,1013.0,287.6,1.8,2.4,304.4,0.00,0.9,6.7,"21:00:32",1
"19/02/15","21:20",0.0,4.3,77.8,1013.3,293.6,2.1,2.8,309.6,0.00,0.8,6.7,"21:15:36",1
"19/02/15","21:30",0.0,4.2,77.7,1013.3,287.7,1.7,2.1,307.1,0.00,0.7,6.6,"21:29:12",1
"19/02/15","21:40",0.0,4.2,78.0,1013.3,298.7,1.7,2.8,324.9,0.00,0.8,6.5,"21:30:02",1
"19/02/15","21:50",0.0,4.0,78.7,1013.3,293.9,1.8,3.2,319.6,0.00,0.7,6.6,"21:41:20",1
"19/02/15","22:00",0.0,4.0,79.3,1013.3,282.7,1.6,1.7,291.0,0.00,0.8,6.4,"21:50:32",1
"19/02/15","22:10",0.0,4.1,79.6,1012.8,285.0,1.5,1.7,287.3,0.00,0.9,6.6,"22:05:28",1
"19/02/15","22:20",0.0,4.1,79.6,1013.0,279.3,1.7,1.9,285.1,0.00,0.9,6.7,"22:12:40",1
"19/02/15","22:30",0.0,4.1,79.9,1013.0,296.2,1.7,2.5,314.0,0.00,1.0,6.4,"22:23:04",1
"19/02/15","22:40",0.0,4.2,80.0,1013.0,303.6,1.8,2.7,314.4,0.00,1.1,6.3,"22:38:00",1
"19/02/15","22:50",0.0,4.2,80.4,1013.0,313.8,2.2,3.2,323.1,0.00,1.2,6.4,"22:40:40",1
"19/02/15","23:00",0.0,4.1,81.3,1012.6,299.4,1.7,2.9,323.8,0.00,1.2,6.4,"22:50:08",1
"19/02/15","23:10",0.0,4.0,81.9,1012.3,277.2,1.3,1.8,277.7,0.00,1.2,6.4,"23:09:44",1
"19/02/15","23:20",0.0,4.0,81.8,1012.3,277.1,1.7,2.0,272.3,0.00,1.2,6.4,"23:10:16",1
"19/02/15","23:30",0.0,4.1,81.4,1012.8,289.2,2.0,2.5,314.5,0.00,1.2,6.4,"23:27:44",1
"19/02/15","23:40",0.0,4.2,81.2,1012.6,312.8,2.6,3.7,324.8,0.00,1.3,6.5,"23:36:32",1
"19/02/15","23:50",0.0,4.0,81.8,1012.8,290.6,1.5,2.7,324.6,0.00,1.2,6.4,"23:40:08",1
"19/02/15","24:00",0.0,3.8,82.2,1012.3,284.5,1.2,1.6,261.2,0.00,1.1,6.3,"23:52:00",1
